Theta_e
323 322 322 320 318 317 319 323 326 327 327 327 329 329 327 327 326 325 323 318 313 311 310 310 310 310 311 311 311 312 312 312 313 312 313 312 312 312 312 312 312 313 317 324 327 329 331 332 332 334 335 334 334 334 333 334 335 334 334 334 334 334
324 322 321 321 319 318 320 324 326 327 328 328 330 330 328 327 326 325 324 320 315 311 310 310 310 310 310 310 311 311 312 312 312 312 312 312 312 312 313 316 317 320 327 331 332 332 332 332 333 335 336 335 334 334 334 335 335 334 334 334 334 334
324 323 322 321 319 319 321 325 327 327 329 330 331 330 329 328 327 326 324 322 317 311 310 310 310 310 310 310 310 311 311 312 312 311 312 312 312 313 318 327 329 330 333 333 333 333 332 334 334 335 335 334 333 333 334 335 334 334 334 334 334 333
325 324 323 322 321 321 323 326 327 328 330 330 331 331 330 329 328 327 325 322 317 311 310 310 310 310 310 310 310 311 311 311 311 311 312 312 316 323 328 333 335 334 335 335 335 335 334 335 334 333 334 332 332 332 334 334 334 333 333 333 332 332
329 327 324 324 324 325 326 326 328 330 332 332 332 332 331 330 329 327 324 320 315 311 311 310 311 310 310 310 310 310 310 311 311 311 313 315 322 331 334 334 335 335 336 336 336 335 335 334 333 333 333 332 332 332 333 334 333 333 332 332 332 332
333 330 327 327 325 327 329 328 330 333 334 334 334 334 333 332 329 326 322 317 313 312 312 311 311 311 311 311 311 311 311 311 311 314 319 324 328 332 334 335 335 335 336 336 335 335 334 333 332 332 332 332 333 333 333 333 333 333 333 333 333 334
334 332 330 330 329 331 333 331 333 335 335 335 335 335 335 332 330 329 326 318 312 313 312 310 311 312 312 311 311 311 312 314 315 322 330 333 335 334 333 334 335 335 335 334 334 334 333 333 332 331 332 332 333 332 332 332 334 334 334 334 334 334
335 335 333 333 334 335 336 334 335 337 337 337 336 337 335 333 333 333 331 321 312 316 316 316 316 314 313 313 317 319 322 324 324 329 333 334 336 336 335 335 335 335 334 333 334 333 331 332 332 331 332 331 331 331 332 333 334 335 335 334 334 333
336 336 335 336 337 337 337 336 338 339 338 339 338 338 336 335 335 334 332 319 313 320 324 326 324 319 319 324 329 330 330 331 331 332 333 334 337 337 337 336 335 334 334 334 335 332 330 331 331 330 331 331 331 331 333 333 334 335 334 333 332 332
337 337 338 338 338 339 338 338 340 339 340 341 339 338 337 336 336 334 329 317 317 328 333 334 330 326 329 333 335 333 332 331 332 334 333 335 338 338 338 336 334 335 334 335 334 331 330 330 329 330 331 331 332 332 332 332 333 334 333 332 331 330
338 339 340 340 340 341 340 340 341 340 340 341 339 338 338 337 335 332 326 316 319 332 336 337 335 333 336 336 336 335 334 333 332 334 334 336 338 338 337 336 334 335 335 334 332 330 329 329 328 330 331 331 331 331 330 331 332 332 331 330 328 327
340 340 341 341 341 341 341 342 342 341 341 340 339 339 338 337 333 328 321 312 317 329 334 336 336 337 337 336 336 336 336 336 336 336 336 337 337 336 336 336 333 333 332 331 330 330 329 328 328 329 330 331 330 330 330 330 330 329 328 327 326 326
340 340 341 341 340 339 340 342 342 342 341 340 339 339 338 336 331 325 317 311 319 329 332 335 336 337 337 334 334 334 332 333 334 335 337 337 336 335 336 336 333 332 332 331 329 329 329 328 329 329 330 331 331 331 331 329 328 327 326 325 325 326
339 339 341 341 340 339 339 342 342 342 341 340 339 338 338 335 331 326 318 314 323 330 333 336 337 337 336 334 333 330 329 330 331 331 334 336 335 335 336 335 334 332 332 332 330 329 329 329 329 329 329 331 330 330 330 329 328 327 326 324 324 325
340 339 341 341 340 339 339 342 342 341 341 340 339 338 336 334 331 329 324 321 326 331 335 337 335 335 335 335 333 329 331 331 331 329 330 333 336 336 336 335 334 333 331 331 330 328 329 328 329 330 329 330 329 329 329 328 327 327 326 324 322 318
340 340 342 341 340 339 338 341 342 341 341 340 339 336 335 333 331 331 328 326 328 332 335 335 333 333 335 335 331 329 331 329 329 330 329 333 337 337 335 334 333 332 331 330 329 329 329 328 329 330 329 329 329 329 329 327 326 325 323 320 314 307
341 341 341 341 340 339 339 341 341 340 340 340 338 336 335 334 331 333 332 330 330 331 332 333 332 332 333 331 329 329 329 328 328 329 329 331 335 336 335 333 330 331 332 330 328 328 328 330 331 330 330 330 329 329 328 324 321 317 313 309 305 302
340 341 341 340 340 339 340 341 341 341 340 339 337 336 336 334 333 335 335 333 331 329 330 331 331 332 332 328 327 330 329 328 328 328 329 330 332 336 335 333 327 326 330 330 326 326 328 332 332 332 331 330 329 329 325 317 312 308 304 302 302 302
339 341 340 340 339 339 340 341 340 340 339 338 337 337 337 335 336 336 335 333 331 330 329 329 331 332 331 328 328 330 330 329 328 329 330 330 331 334 335 333 327 322 324 328 326 324 329 332 333 332 330 330 329 327 319 308 304 303 302 302 302 302
339 341 340 340 339 338 340 341 340 339 338 338 337 337 338 336 337 337 335 334 333 332 329 328 330 330 328 328 328 329 331 330 329 330 331 330 331 333 334 332 327 319 317 322 322 322 328 331 332 331 330 330 325 322 316 303 302 303 302 302 302 302
339 340 340 340 338 337 340 340 339 339 337 337 337 337 337 336 336 335 335 335 334 333 330 330 330 329 328 328 328 330 331 329 330 332 332 331 331 332 333 328 322 316 314 318 318 322 328 329 331 331 329 328 322 322 318 304 302 304 301 302 301 301
339 338 339 338 337 336 339 339 338 337 337 337 337 337 337 335 334 334 335 335 335 334 332 331 331 330 329 328 329 331 331 329 330 333 334 333 332 332 332 326 318 314 316 319 316 320 328 329 330 330 329 328 324 326 321 306 305 306 301 302 301 301
338 338 338 337 336 337 339 339 337 336 336 336 336 335 335 335 333 334 336 335 334 334 332 331 331 331 329 328 329 330 330 329 329 332 334 334 333 332 331 324 316 314 314 317 314 314 325 329 329 329 329 330 328 328 323 313 310 306 301 301 301 301
338 337 336 336 336 337 338 338 337 335 334 334 333 333 334 334 334 335 336 335 334 333 331 330 330 330 329 327 327 328 329 330 330 332 333 333 332 331 326 319 316 316 314 316 313 309 319 329 331 329 328 329 328 328 326 321 315 307 301 300 301 301
337 336 335 336 337 338 337 337 336 334 333 333 333 334 335 334 335 335 335 335 333 332 331 330 330 330 329 327 326 328 330 331 332 332 332 331 330 327 321 317 317 317 315 317 315 306 313 328 332 330 329 329 328 328 329 325 319 309 301 300 301 301
336 334 335 337 338 337 335 334 333 332 331 333 334 334 334 334 334 334 334 333 332 331 331 330 330 330 329 328 327 329 331 331 331 332 332 330 328 323 317 315 318 317 315 318 317 307 308 324 331 330 330 331 329 328 328 325 320 314 306 302 303 304
335 334 335 337 338 337 333 331 331 330 330 332 334 335 335 334 334 334 333 332 332 331 331 330 330 329 329 329 329 330 330 329 331 331 331 330 326 320 315 314 316 317 316 318 317 307 304 315 324 326 328 330 328 326 324 321 319 319 314 310 308 308
335 333 334 336 338 335 330 329 330 331 332 334 335 335 335 335 334 334 333 332 332 331 331 330 329 329 329 330 330 330 329 330 331 330 330 329 323 317 315 314 314 316 317 317 314 307 304 307 313 318 323 325 324 323 321 319 318 318 317 314 311 310
335 332 333 335 336 333 330 329 331 333 334 335 336 335 335 334 334 333 333 332 332 331 331 330 330 330 331 331 331 331 331 331 331 330 329 325 319 315 315 314 313 314 315 314 311 307 305 305 308 313 318 318 319 320 319 318 317 317 316 313 311 311
335 333 334 334 334 334 332 331 331 332 333 335 336 335 334 334 333 333 333 333 332 331 331 331 331 332 332 332 332 331 332 332 331 330 326 320 316 315 314 314 312 310 309 308 308 307 305 304 305 308 311 311 313 314 315 316 317 316 314 311 310 311
336 334 334 334 334 335 334 331 329 330 332 333 334 334 334 334 333 333 333 333 332 331 331 332 332 333 333 333 332 332 332 331 330 328 322 316 315 314 314 313 310 306 305 304 306 307 304 304 304 305 305 305 305 306 307 311 315 315 312 309 309 310
336 334 335 335 335 336 334 330 329 330 332 333 333 333 333 334 333 333 333 333 331 330 332 333 333 333 333 332 332 332 330 329 328 324 318 315 314 314 314 311 306 304 304 304 305 305 304 304 304 303 304 303 303 303 303 305 309 312 310 309 309 310
337 335 336 336 336 336 333 330 330 331 332 333 332 332 332 333 334 333 333 333 331 330 332 333 334 333 333 333 332 330 328 327 326 321 316 315 314 313 312 307 304 304 303 303 304 304 303 303 303 303 303 303 303 303 303 302 303 306 309 309 309 310
336 336 337 338 337 336 333 331 331 331 332 332 332 332 333 333 333 333 333 333 330 330 332 333 333 333 332 332 330 328 327 327 323 318 315 314 313 311 307 304 303 304 303 303 303 303 303 303 303 303 303 303 303 302 302 302 301 302 306 308 308 309
337 337 338 338 337 336 334 333 332 332 332 332 332 333 333 333 333 333 333 331 330 330 332 333 333 332 330 329 328 328 327 323 318 316 314 313 312 308 304 303 303 303 303 303 303 303 303 303 303 303 302 302 302 302 301 301 301 301 303 306 307 309
338 338 338 338 338 337 335 334 333 333 332 333 332 332 333 333 332 332 331 330 330 332 332 333 332 330 328 327 328 329 325 319 315 314 313 313 313 307 303 303 303 303 303 303 303 303 302 302 302 302 302 302 301 301 301 301 301 301 301 305 308 308
338 339 338 338 337 337 335 334 333 332 332 333 332 332 333 333 332 331 330 329 331 332 332 331 329 327 326 328 329 327 321 316 314 313 313 314 312 305 302 302 302 302 302 302 302 302 302 302 302 301 301 301 301 301 300 300 300 300 301 304 307 309
Wind_Speed
24 22 21 20 19 19 18 18 16 15 13 11 10 9 8 7 7 7 7 7 7 7 8 8 9 10 10 10 10 9 8 8 7 6 5 5 4 4 4 4 4 5 5 6 7 7 7 8 9 10 10 9 9 8 8 7 6 5 4 7 7 9
24 22 22 21 20 19 19 19 17 15 13 10 10 9 8 7 6 7 7 8 7 7 8 8 8 9 9 9 9 9 8 6 6 6 5 5 5 5 5 5 6 6 7 7 8 7 7 7 9 10 10 10 9 10 10 7 5 5 6 7 8 9
23 22 21 21 20 19 19 19 16 14 12 10 10 8 7 6 6 6 7 7 8 8 9 8 8 8 8 8 8 8 8 7 6 6 5 5 6 6 6 7 7 7 6 6 6 6 5 6 8 10 10 10 10 10 9 5 3 5 6 7 8 9
21 21 20 20 20 20 19 18 15 13 11 10 9 8 7 6 6 7 7 8 9 9 9 9 8 8 7 7 7 7 6 6 5 5 6 6 7 8 7 7 6 5 4 3 4 4 5 7 9 10 9 10 10 8 6 4 3 4 6 7 8 9
18 18 19 19 20 19 18 17 14 13 11 10 9 8 7 6 6 7 7 8 9 9 10 9 8 8 7 7 6 6 5 5 5 5 6 7 8 7 6 6 4 3 2 3 4 6 8 9 10 9 7 8 9 6 6 5 3 6 7 7 7 8
16 16 17 17 18 19 17 16 14 13 12 10 10 9 7 7 8 7 7 10 10 9 9 8 7 7 7 7 6 5 5 4 5 6 6 6 6 4 3 4 4 3 4 5 6 7 8 9 10 10 8 7 9 5 3 3 5 8 7 6 7 7
15 15 15 16 17 18 17 15 14 13 12 11 10 9 7 6 7 5 6 10 11 10 10 8 7 7 7 7 7 6 5 5 7 7 6 5 3 1 2 6 7 6 7 6 6 6 6 7 8 9 7 6 4 1 4 5 6 6 5 5 6 6
15 14 14 16 17 18 17 15 15 13 12 11 10 8 6 5 4 2 3 7 11 11 11 9 6 6 8 8 6 5 5 5 6 7 5 4 3 3 4 6 7 6 6 6 6 6 6 5 4 4 3 3 2 4 4 5 4 4 4 4 4 5
16 15 14 15 15 17 17 15 15 14 12 11 10 9 7 5 4 4 5 7 12 11 10 9 3 4 9 8 6 4 2 2 4 5 3 2 2 3 2 4 5 4 5 6 7 6 6 6 4 4 3 3 3 2 2 4 4 3 2 2 3 4
16 17 17 16 14 15 16 15 14 14 12 11 11 10 8 5 5 5 5 9 13 12 10 7 3 3 5 3 2 1 4 4 4 2 1 2 1 0 2 5 5 4 5 4 5 6 7 8 6 8 5 4 3 2 2 4 2 2 1 2 3 4
17 20 21 17 14 15 17 15 14 14 12 11 12 11 9 6 5 5 5 12 15 14 12 9 5 4 3 1 4 5 6 6 6 5 7 7 4 3 4 5 3 4 3 4 6 7 8 8 6 8 6 4 2 2 4 4 2 1 2 3 4 6
19 24 24 19 17 16 16 16 15 15 13 13 14 13 11 7 6 6 9 15 15 14 13 13 11 8 7 9 11 9 6 6 7 9 8 7 5 4 4 3 3 6 5 6 8 7 7 6 4 6 5 2 1 2 4 4 2 2 4 5 6 7
21 25 25 21 19 16 15 16 17 16 15 16 16 15 12 9 7 8 12 15 15 13 13 14 14 12 12 14 15 14 10 9 10 9 5 4 4 4 5 5 7 9 7 6 7 5 6 7 5 4 3 2 1 1 1 1 2 2 4 6 7 8
23 26 25 21 20 17 15 17 18 16 17 18 18 15 13 11 9 9 12 14 13 13 13 14 16 16 13 10 10 11 10 10 10 9 5 3 4 5 6 6 8 9 7 6 5 3 5 7 6 5 3 2 2 1 2 1 1 1 3 4 5 7
26 27 24 21 20 18 16 18 19 17 18 19 17 15 14 13 11 10 12 13 11 12 13 13 13 15 13 9 8 9 9 9 9 8 6 5 5 6 6 6 7 9 8 7 6 5 4 4 4 4 4 4 4 5 4 1 1 4 5 5 6 6
29 29 22 20 20 19 17 18 19 18 19 19 15 14 14 13 13 12 12 12 11 11 12 10 10 12 13 11 9 9 9 9 8 8 8 8 7 7 6 6 7 10 10 8 7 7 5 5 5 5 5 6 5 5 4 2 4 6 6 7 6 5
29 31 24 20 19 19 18 19 20 19 19 17 15 15 14 13 13 12 13 13 12 12 12 11 10 10 11 11 9 8 8 9 9 9 9 11 9 7 6 6 7 12 11 9 9 8 7 7 6 7 7 7 5 4 3 5 5 5 5 4 4 7
28 32 27 21 20 20 20 20 20 19 18 16 15 14 12 13 12 11 13 13 14 13 13 13 11 9 9 10 10 8 8 8 9 10 12 12 11 8 6 6 6 12 13 10 10 11 9 8 7 7 7 6 5 4 5 7 5 3 4 4 6 8
28 32 28 24 22 22 22 22 20 18 18 17 15 14 13 13 14 13 14 13 13 14 13 13 11 9 9 10 10 9 8 8 9 12 12 12 13 11 9 7 6 10 13 11 10 12 11 8 7 7 6 5 3 3 4 4 4 5 7 7 9 9
30 31 27 26 25 24 25 24 22 19 19 19 18 17 16 16 17 17 15 12 12 13 13 13 12 11 10 10 11 10 8 9 11 13 13 13 14 11 9 9 8 10 13 12 11 13 12 11 9 8 7 5 2 1 2 6 7 9 10 10 9 9
32 31 29 29 27 27 28 26 24 22 21 21 20 20 20 19 19 18 16 13 13 13 13 14 13 12 11 10 12 12 9 10 11 13 14 13 13 11 9 9 10 11 11 11 11 13 13 13 12 11 9 6 4 4 4 7 10 11 12 11 10 10
33 33 31 31 29 29 29 27 25 22 22 24 23 22 21 21 19 18 17 15 14 13 14 14 13 11 10 11 13 12 11 12 13 13 13 13 13 11 9 9 13 14 11 10 11 13 15 15 13 12 9 6 6 6 5 6 10 13 13 12 10 10
34 34 32 32 30 29 28 26 24 22 24 25 23 23 22 21 19 18 17 16 15 14 14 14 13 12 11 11 13 13 12 14 15 14 13 13 13 11 10 11 15 15 13 12 11 13 18 17 14 13 10 6 6 7 6 6 8 12 12 11 10 10
34 34 32 32 29 28 27 26 23 22 24 24 23 22 22 21 20 18 17 15 14 14 14 14 13 13 12 12 13 14 13 14 16 15 14 14 13 12 12 14 16 16 14 13 11 12 18 19 15 14 11 7 6 7 6 6 7 11 11 10 11 11
33 34 32 31 28 27 28 26 24 24 25 26 25 24 23 23 21 20 18 16 14 14 14 13 13 13 13 13 14 14 14 15 16 15 14 14 13 13 14 16 16 15 13 13 12 12 17 20 17 15 12 8 7 8 8 10 9 10 11 11 10 11
32 34 32 30 29 29 29 28 28 28 29 30 28 26 23 22 21 21 20 18 16 16 15 14 14 14 15 14 14 15 15 16 17 16 15 14 13 13 15 15 15 14 12 12 12 12 16 20 18 15 15 13 10 8 8 12 10 9 11 10 8 8
32 35 32 31 31 31 31 30 30 29 29 29 28 25 23 21 20 20 20 19 18 16 15 15 15 15 15 14 14 15 16 17 17 16 15 14 14 13 14 14 15 16 13 12 12 12 14 19 19 17 16 15 14 9 7 9 8 9 10 8 5 6
33 35 34 32 32 33 32 31 30 29 27 26 25 23 22 22 20 19 20 19 18 17 17 16 17 17 16 15 15 16 18 18 16 15 14 13 14 14 14 14 15 17 16 14 13 12 13 16 18 18 16 14 13 10 9 8 6 7 8 7 6 5
33 35 35 34 33 33 33 32 31 29 27 25 23 22 23 22 21 20 20 19 19 19 18 18 18 18 17 16 16 17 18 17 15 14 13 13 13 14 14 14 15 17 17 16 13 12 13 14 15 16 17 15 13 12 11 10 7 7 7 8 7 5
33 34 36 35 35 33 33 33 32 30 28 26 24 23 23 22 22 21 21 20 20 19 19 20 19 18 17 17 16 17 17 17 15 13 12 13 14 14 15 15 15 15 16 15 13 12 12 12 13 14 14 14 14 13 13 12 10 9 9 9 8 6
33 35 36 36 35 33 33 33 31 30 29 27 25 24 23 23 23 23 22 21 20 20 20 20 20 19 17 17 17 18 18 16 14 12 13 15 15 16 16 15 14 14 15 14 13 13 13 12 12 12 12 11 12 12 12 12 13 12 10 10 10 10
35 37 37 36 35 34 34 32 30 29 28 27 25 24 23 23 23 24 23 22 21 21 21 21 21 19 19 19 18 18 16 14 12 12 15 16 16 16 15 14 14 14 14 14 13 13 13 12 11 11 11 10 10 10 10 11 12 13 11 11 12 13
36 38 37 35 35 35 34 31 30 29 27 26 24 23 22 22 23 24 23 22 22 22 22 22 22 20 20 20 18 17 14 13 14 15 16 16 15 14 13 13 13 14 15 14 13 13 13 12 12 11 11 11 10 10 10 10 10 11 12 11 13 15
37 38 37 35 35 35 33 31 29 29 27 25 24 23 22 22 23 23 22 21 21 21 22 22 21 21 20 18 17 15 13 13 15 16 16 15 13 12 12 13 14 14 15 14 14 14 13 13 13 12 12 11 11 10 9 10 9 10 12 11 13 17
38 38 37 36 36 34 33 31 29 28 26 25 24 23 22 21 22 22 21 19 19 20 21 21 21 20 18 17 15 14 13 15 17 16 15 13 11 12 13 14 15 15 15 14 14 14 14 14 13 12 12 10 10 10 9 9 9 9 11 12 14 17
40 38 37 36 35 34 33 32 30 29 27 25 24 23 22 22 21 21 19 17 18 19 20 20 20 19 17 16 14 13 14 16 16 15 13 11 11 13 14 15 16 15 15 15 15 14 14 13 13 12 11 10 9 10 9 9 9 9 10 12 14 16
40 38 36 35 34 33 33 32 31 30 28 26 25 24 23 22 22 20 17 17 19 20 20 20 19 18 17 16 15 14 16 17 16 14 12 12 13 14 16 16 17 16 16 16 15 15 14 13 13 12 12 11 10 10 10 9 9 10 11 11 13 14
Wind_Direction
186 181 180 178 177 174 172 175 177 181 181 176 169 166 166 163 167 168 167 166 164 166 169 171 170 169 169 166 164 165 165 165 159 156 151 142 135 122 109 96 86 89 92 85 82 85 70 52 42 40 46 49 56 58 63 63 30 21 351 329 334 334
186 183 182 180 177 175 175 176 179 181 180 173 167 168 168 169 175 175 175 173 170 175 176 176 174 172 171 168 168 167 166 170 161 150 145 139 131 121 109 91 87 97 93 82 77 76 68 50 37 39 48 49 50 48 49 55 30 1 335 329 334 337
187 185 183 180 177 178 179 177 179 180 175 169 169 169 169 174 180 189 185 176 179 182 181 178 174 172 171 173 176 173 168 168 160 150 145 138 129 120 109 91 86 91 81 70 70 73 73 58 49 49 48 42 43 47 45 45 25 353 338 339 338 339
186 187 184 181 178 181 180 177 179 176 173 171 169 167 171 179 187 204 195 183 191 186 181 178 171 167 169 177 180 176 172 161 151 149 142 133 126 117 113 104 92 93 82 66 66 62 65 60 56 58 49 38 40 49 51 61 52 355 340 340 336 339
178 184 183 182 180 181 179 175 177 173 174 173 169 169 171 177 185 202 197 190 194 184 172 167 164 163 166 175 176 171 165 152 143 143 141 138 135 128 126 118 104 101 74 59 64 60 61 49 45 54 46 43 52 64 67 65 24 338 334 335 334 338
171 179 182 182 183 182 177 173 174 173 174 173 171 171 172 178 175 174 182 191 186 164 150 150 157 160 163 166 165 165 157 148 140 138 139 141 146 148 131 92 77 76 60 64 72 64 57 45 47 47 32 57 78 76 44 354 318 322 328 334 337 341
171 179 180 178 183 183 178 174 173 173 173 175 172 169 178 176 162 147 172 192 173 146 139 141 153 157 160 162 159 155 145 140 139 139 137 130 120 66 50 58 59 68 66 66 66 61 64 56 55 47 41 88 103 295 306 307 310 326 333 343 347 353
176 184 180 173 183 183 180 177 174 174 174 176 171 168 170 147 137 158 212 194 162 150 146 137 148 166 159 154 141 130 123 123 146 159 149 119 86 28 26 56 66 74 71 63 49 56 82 67 55 63 90 147 260 288 304 316 328 347 354 358 353 360
181 190 182 171 178 185 186 179 174 175 175 174 169 162 153 140 163 207 230 193 160 157 152 132 132 175 158 141 113 106 119 143 176 182 152 85 64 31 40 93 103 101 90 76 51 66 83 52 75 131 180 215 262 279 317 324 329 355 18 10 348 355
184 189 184 176 177 190 192 177 172 177 174 170 167 160 151 159 189 211 220 178 159 153 147 132 109 135 139 121 68 291 259 236 227 233 264 293 293 61 150 149 152 126 104 100 86 100 85 47 88 137 166 177 172 215 320 331 321 350 17 7 347 345
181 180 183 188 187 196 196 177 175 182 173 165 164 164 166 181 197 208 190 167 162 155 148 148 159 158 134 263 271 264 263 237 222 227 234 245 238 207 185 175 162 135 140 151 123 106 89 64 87 124 138 148 157 259 312 325 317 326 342 351 345 342
177 176 181 192 194 198 197 180 180 185 171 162 165 173 185 196 196 183 164 164 168 163 159 161 172 189 193 209 213 206 228 236 225 225 221 224 228 210 183 167 115 120 123 127 115 92 100 109 99 100 101 94 7 317 322 339 355 343 341 344 343 343
173 176 180 191 197 201 198 185 184 184 172 168 172 182 194 199 190 161 154 168 172 167 167 169 176 191 198 211 213 206 223 245 250 256 239 202 206 193 161 140 120 119 107 112 115 87 112 138 142 126 94 65 21 344 346 57 74 39 2 351 348 346
172 176 184 191 198 204 200 187 186 184 177 178 180 187 197 197 185 159 154 172 175 165 171 180 186 194 201 213 220 215 218 229 244 262 260 217 197 184 168 160 141 125 113 126 143 136 133 138 145 161 161 158 185 181 178 172 117 51 1 351 347 342
174 176 188 194 196 203 199 186 186 185 181 184 186 189 194 187 179 172 165 173 176 169 175 187 192 197 205 208 214 220 214 220 238 247 236 205 194 195 186 185 161 141 137 138 148 159 164 165 160 169 183 191 189 174 177 199 309 318 328 328 327 332
179 178 187 192 195 202 197 186 184 185 184 189 190 186 185 181 180 180 177 179 181 179 183 193 197 198 207 208 212 219 212 215 227 233 218 189 191 206 204 201 172 160 164 158 153 149 158 195 204 199 196 195 187 179 191 235 294 314 325 319 323 357
184 182 186 189 192 197 192 183 183 185 187 190 189 183 183 187 187 180 178 184 186 189 193 197 201 203 209 213 216 223 216 211 213 218 212 196 198 207 213 220 186 172 176 174 165 156 164 190 198 197 194 193 196 205 258 303 313 332 346 335 356 30
186 185 187 188 189 193 184 178 182 188 189 188 183 178 184 188 183 175 179 188 190 194 200 200 203 208 212 212 214 225 223 211 209 209 205 200 201 203 211 228 199 178 181 183 170 162 171 183 185 187 186 192 214 248 303 322 335 19 32 35 40 41
184 184 188 191 191 189 180 177 184 188 187 185 174 172 185 183 176 182 187 190 194 199 205 204 204 208 211 207 212 228 226 212 209 204 202 200 201 204 210 222 212 186 188 192 179 171 175 181 190 198 197 198 223 283 335 5 41 57 51 49 50 51
183 184 188 192 192 187 180 179 184 187 185 180 170 173 188 186 183 193 195 191 196 203 207 206 206 211 213 209 213 222 215 208 207 203 203 205 206 207 212 215 210 196 194 192 184 180 183 189 197 199 196 205 210 175 58 57 67 62 56 54 56 61
185 186 191 193 192 186 180 181 186 188 182 176 174 180 190 192 193 198 198 195 199 203 205 206 209 210 212 213 215 218 216 211 208 206 207 210 213 211 213 213 199 197 198 190 182 183 190 198 203 198 189 195 184 143 92 68 68 63 59 57 60 64
188 190 194 196 194 185 180 183 186 184 178 175 180 188 195 198 200 200 198 198 200 203 205 207 209 204 205 213 215 215 216 212 206 205 205 210 217 215 218 215 200 197 196 193 188 187 197 204 208 211 207 200 176 147 116 83 69 63 61 59 62 66
191 193 194 196 193 184 181 185 186 183 180 181 186 194 201 203 201 199 197 198 202 206 206 206 206 203 208 214 215 213 209 206 204 203 204 211 220 222 222 213 203 200 194 196 196 192 201 208 211 213 214 219 196 161 138 116 75 64 66 68 73 74
192 194 192 192 188 181 181 186 188 187 186 190 195 199 203 204 201 199 198 199 204 207 205 205 205 204 206 208 212 214 209 205 203 205 208 214 222 225 217 204 204 209 202 199 199 195 199 204 213 214 208 214 203 181 167 156 113 83 80 82 85 81
192 191 189 187 182 181 183 185 189 190 190 196 200 200 200 199 200 200 200 200 203 206 206 207 205 204 204 203 207 208 206 206 207 212 214 217 224 221 209 200 203 213 208 198 198 201 199 199 210 219 211 199 188 192 194 178 144 107 102 96 88 80
193 189 187 182 179 185 188 187 192 193 194 197 198 200 200 199 200 201 202 204 207 209 208 206 203 204 204 202 203 202 205 210 212 218 220 224 229 217 205 201 204 214 212 203 203 205 202 199 203 211 213 217 224 230 204 181 166 137 126 112 93 78
193 189 185 180 181 190 192 193 198 199 199 199 198 199 201 202 204 203 205 208 209 208 205 201 199 202 206 205 207 208 212 216 218 222 226 231 232 215 204 203 207 215 219 218 214 207 203 202 204 206 209 222 235 236 198 182 178 160 148 136 119 85
192 190 186 182 186 195 198 198 200 199 200 201 200 201 201 203 205 207 209 208 205 202 198 198 199 200 203 206 212 216 217 220 222 228 232 234 227 212 204 205 210 216 223 229 224 209 202 201 204 205 206 215 224 211 190 188 181 163 158 149 137 104
191 191 188 186 191 198 202 202 200 197 198 201 203 204 204 202 203 207 209 206 201 198 195 197 202 201 201 206 215 220 220 221 224 233 239 231 216 206 204 206 210 216 223 230 227 212 205 202 202 203 204 207 207 198 190 187 184 176 162 144 128 112
193 192 189 190 195 199 204 205 202 199 199 201 203 204 203 202 203 205 205 202 199 197 195 198 204 205 205 210 216 221 225 226 229 238 233 215 205 203 205 208 211 215 220 225 224 212 205 203 201 202 203 201 197 196 192 183 179 177 163 138 114 108
193 192 190 194 196 198 203 206 205 203 202 204 204 204 204 204 205 205 204 202 198 197 196 200 207 210 209 213 217 223 228 231 237 238 218 205 204 204 206 210 213 213 213 214 213 208 203 203 202 201 200 198 197 198 196 191 183 180 175 151 124 115
193 191 192 195 196 198 204 206 205 204 204 206 207 208 210 212 212 209 207 204 199 198 199 201 208 212 212 215 218 224 228 230 232 224 208 206 207 206 209 212 210 208 204 201 202 202 200 201 201 201 199 197 201 199 197 197 191 188 183 164 145 128
191 190 193 195 195 199 205 206 204 204 205 206 209 213 216 219 218 213 209 206 201 201 201 203 208 212 214 216 220 224 227 228 225 214 207 209 209 210 213 211 205 202 197 193 193 194 195 196 195 196 197 194 193 191 186 184 184 185 179 167 156 139
190 189 193 195 196 200 205 205 204 204 207 209 211 214 216 220 219 213 209 208 205 204 204 206 209 213 215 217 219 222 223 222 216 208 205 208 208 211 211 205 199 196 192 189 188 190 192 194 192 190 190 187 181 177 172 170 169 175 177 171 158 147
191 191 194 197 198 201 203 203 203 204 208 212 214 214 215 217 214 209 208 208 206 205 205 207 210 214 217 217 218 221 218 209 205 204 202 203 208 211 207 199 193 190 189 187 187 189 190 190 188 184 180 177 172 166 160 161 165 169 175 171 158 152
194 194 196 197 198 201 203 201 201 203 207 211 214 215 212 207 204 205 207 207 205 203 203 208 211 213 214 215 220 222 212 201 201 201 196 201 215 213 204 194 187 186 185 185 185 187 187 185 182 176 170 167 164 158 153 158 164 164 164 165 162 159
196 196 197 198 198 201 203 202 202 203 207 210 213 214 211 202 199 203 206 206 203 200 201 206 211 212 213 217 221 217 205 198 198 195 194 208 217 208 198 190 185 184 184 184 185 185 183 181 176 170 164 161 157 152 150 154 157 154 149 153 163 167